Location: Lower Kingswood
(51.2667°N, 0.2167°W)
Time: 21:36:44
(UTC+00:00)

ATLAS 3B R/B - Pass Details

Date: 26 September 2023
Orbit: 954 x 1241 km, 63.8° (Epoch: 01 December)

Event Time Altitude Azimuth Distance (km) Brightness Sun altitude
Rises 00:00:33 0° 287° (WNW) 3,979 5.8 -39.8°
Reaches altitude 10° 00:03:34 10° 298° (WNW) 3,063 5.3 -39.7°
Maximum altitude 00:10:03 32° 359° (N) 1,953 4.4 -39.7°
Drops below altitude 10° 00:16:48 10° 60° (ENE) 3,198 5.5 -39.5°
Sets 00:20:02 0° 70° (ENE) 4,178 6.1 -39.5°
